This demonstration page uses our WeatherBlox Daily Observations layout. Learn more.

40.92945, -100.16068

Hourly Observations for November 17, 2020

Temp ( °F °C ) Dew Point ( °F °C ) Humidity (%) Winds ( mph kmh ) Pressure ( in mb ) Visibility ( mi km ) Precip ( " mm )
12:15 am 00:15 Partly Cloudy 32 -0.1 26 -3.3 79 79 Calm 30.5 1033 10 16.0934 0 0
12:35 am 00:35 Clear 31 -0.6 24 -4.2 77 77 Calm 30.51 1033 10 16.0934 0 0
12:55 am 00:55 Mostly Cloudy 30 -1.3 25 -4 82 82 Calm 30.51 1033 10 16.0934 0 0
1:15 am 01:15 Cloudy 31 -0.7 26 -3.2 83 83 W 3 6 30.51 1033 10 16.0934 0 0
1:35 am 01:35 Cloudy 31 -0.7 26 -3.5 82 82 W 5 7 30.5 1033 10 16.0934 0 0
1:55 am 01:55 Mostly Cloudy 31 -0.7 26 -3.2 83 83 Calm 30.49 1032 10 16.0934 0 0
2:15 am 02:15 Clear 30 -1.3 26 -3.6 85 85 Calm 30.49 1033 10 16.0934 0 0
2:35 am 02:35 Clear 30 -1.1 26 -3.2 86 86 Calm 30.48 1032 10 16.0934 0 0
2:55 am 02:55 Clear 29 -1.6 26 -3.6 86 86 Calm 30.48 1032 10 16.0934 0 0
3:15 am 03:15 Clear 29 -1.4 25 -3.7 85 85 ENE 3 6 30.49 1033 10 16.0934 0 0
3:35 am 03:35 Clear 31 -0.8 24 -4.2 78 78 SSE 6 9 30.48 1032 10 16.0934 0 0
3:55 am 03:55 Clear 32 0 24 -4.5 72 72 SSE 6 9 30.47 1032 10 16.0934 0 0
4:15 am 04:15 Clear 31 -0.6 25 -4.1 77 77 SE 3 6 30.47 1032 10 16.0934 0 0
4:35 am 04:35 Clear 35 1.7 23 -5 61 61 Calm 30.45 1031 10 16.0934 0 0
4:55 am 04:55 Clear 34 1.3 23 -5.1 63 63 SSE 5 7 30.46 1031 10 16.0934 0 0
5:15 am 05:15 Clear 30 -1 24 -4.7 76 76 ESE 3 6 30.48 1032 10 16.0934 0 0
5:35 am 05:35 Clear 30 -1.3 23 -5 76 76 SSE 7 11 30.48 1032 10 16.0934 0 0
5:55 am 05:55 Clear 34 1.1 24 -4.6 66 66 SSE 8 13 30.46 1031 10 16.0934 0 0
6:15 am 06:15 Clear 35 1.8 24 -4.7 62 62 SE 7 11 30.45 1031 10 16.0934 0 0
6:35 am 06:35 Clear 34 1.2 23 -5 64 64 ESE 5 7 30.46 1031 10 16.0934 0 0
6:55 am 06:55 Clear 29 -1.6 23 -5.2 77 77 SE 6 9 30.47 1032 10 16.0934 0 0
7:15 am 07:15 Clear 33 0.8 23 -5 66 66 SE 5 7 30.44 1031 10 16.0934 0 0
7:35 am 07:35 Sunny 33 0.6 23 -5 66 66 SE 5 7 30.44 1031 10 16.0934 0 0
7:55 am 07:55 Sunny 33 0.6 24 -4.7 68 68 ESE 6 9 30.44 1031 10 16.0934 0 0
8:15 am 08:15 Sunny 35 1.6 24 -4.4 65 65 SE 6 9 30.43 1031 10 16.0934 0 0
8:35 am 08:35 Sunny 37 2.7 24 -4.3 60 60 SE 5 7 30.42 1030 10 16.0934 0 0
8:55 am 08:55 Sunny 38 3.6 25 -4 58 58 SE 6 9 30.4 1030 10 16.0934 0 0
9:15 am 09:15 Sunny 43 6.1 27 -2.9 53 53 S 10 17 30.38 1029 10 16.0934 0 0
9:35 am 09:35 Sunny 47 8.3 27 -3 45 45 S 15 24 30.36 1028 10 16.0934 0 0
9:55 am 09:55 Sunny 49 9.3 27 -2.9 43 43 S 18 30 30.34 1027 10 16.0934 0 0
10:15 am 10:15 Sunny 50 9.9 27 -2.6 42 42 S 17 28 30.32 1027 10 16.0934 0 0
10:35 am 10:35 Sunny 52 11 28 -2.4 39 39 S 17 28 30.31 1026 10 16.0934 0 0
10:55 am 10:55 Sunny 53 11.6 28 -2.2 38 38 SSE 12 19 30.31 1026 10 16.0934 0 0
11:15 am 11:15 Sunny 54 12.4 28 -2.2 36 36 S 16 26 30.28 1025 10 16.0934 0 0
11:35 am 11:35 Sunny 55 12.7 27 -2.6 35 35 S 12 19 30.27 1025 10 16.0934 0 0
11:55 am 11:55 Sunny 56 13.2 28 -2.5 34 34 S 16 26 30.24 1024 10 16.0934 0 0
12:15 pm 12:15 Sunny 56 13.6 28 -2.2 34 34 S 16 26 30.24 1024 10 16.0934 0 0
12:35 pm 12:35 Sunny 58 14.3 28 -2.1 32 32 SSW 16 26 30.21 1023 10 16.0934 0 0
12:55 pm 12:55 Sunny 60 15.4 28 -2 30 30 S 13 20 30.19 1022 10 16.0934 0 0
1:15 pm 13:15 Sunny 60 15.7 28 -2.3 29 29 SSW 17 28 30.17 1022 10 16.0934 0 0
1:35 pm 13:35 Sunny 61 16.1 28 -2 29 29 SSW 13 20 30.16 1021 10 16.0934 0 0
1:55 pm 13:55 Sunny 63 17 28 -2 27 27 SSW 16 26 30.14 1021 10 16.0934 0 0
2:15 pm 14:15 Sunny 64 17.9 28 -2 26 26 S 13 20 30.13 1020 10 16.0934 0 0
2:35 pm 14:35 Sunny 66 19 27 -2.8 23 23 S 17 28 30.1 1019 10 16.0934 0 0
2:55 pm 14:55 Sunny 67 19.7 27 -2.9 22 22 S 14 22 30.09 1019 10 16.0934 0 0
3:15 pm 15:15 Sunny 68 19.9 27 -2.9 21 21 S 16 26 30.08 1019 10 16.0934 0 0
3:35 pm 15:35 Sunny 66 19.1 28 -2.5 23 23 S 12 19 30.08 1019 10 16.0934 0 0
3:55 pm 15:55 Sunny 66 18.8 29 -1.5 25 25 S 9 15 30.07 1018 10 16.0934 0 0
4:15 pm 16:15 Sunny 66 18.7 30 -1.3 26 26 SSE 10 17 30.07 1018 10 16.0934 0 0
4:35 pm 16:35 Sunny 64 17.8 30 -1.1 28 28 SE 9 15 30.08 1019 10 16.0934 0 0
4:55 pm 16:55 Sunny 64 17.5 29 -1.5 28 28 SE 9 15 30.07 1018 10 16.0934 0 0
5:15 pm 17:15 Sunny 61 16.2 30 -1 31 31 SE 7 11 30.08 1019 10 16.0934 0 0
5:35 pm 17:35 Clear 59 15 30 -1.1 33 33 SE 7 11 30.1 1019 10 16.0934 0 0
5:55 pm 17:55 Clear 58 14.5 30 -1.1 34 34 SE 8 13 30.1 1019 10 16.0934 0 0
6:15 pm 18:15 Clear 56 13.6 30 -1.2 36 36 SE 8 13 30.11 1020 10 16.0934 0 0
6:35 pm 18:35 Clear 55 12.5 30 -1 40 40 SE 9 15 30.11 1020 10 16.0934 0 0
6:55 pm 18:55 Clear 54 12.3 30 -1.2 39 39 ESE 10 17 30.11 1020 10 16.0934 0 0
7:15 pm 19:15 Clear 54 12.1 29 -1.5 39 39 SE 10 17 30.1 1019 10 16.0934 0 0
7:35 pm 19:35 Clear 52 11.1 30 -1.3 42 42 ESE 8 13 30.11 1020 10 16.0934 0 0
7:55 pm 19:55 Clear 50 10.1 30 -1.2 46 46 SE 6 9 30.12 1020 10 16.0934 0 0
8:15 pm 20:15 Clear 51 10.6 30 -0.9 45 45 SSE 13 20 30.11 1019 10 16.0934 0 0
8:35 pm 20:35 Clear 52 11.2 30 -1 43 43 SSE 10 17 30.1 1019 10 16.0934 0 0
8:55 pm 20:55 Clear 51 10.3 31 -0.6 47 47 SSE 12 19 30.1 1019 10 16.0934 0 0
9:15 pm 21:15 Clear 52 11 31 -0.7 45 45 S 15 24 30.09 1019 10 16.0934 0 0
9:35 pm 21:35 Clear 52 11 31 -0.8 44 44 S 14 22 30.09 1019 10 16.0934 0 0
9:55 pm 21:55 Clear 50 9.8 31 -0.8 48 48 S 12 19 30.1 1019 10 16.0934 0 0
10:15 pm 22:15 Clear 48 9 31 -0.8 51 51 SSE 10 17 30.1 1019 10 16.0934 0 0
10:35 pm 22:35 Clear 48 9.1 30 -1 50 50 SE 9 15 30.09 1019 10 16.0934 0 0
10:55 pm 22:55 Clear 49 9.4 30 -1.3 48 48 ESE 8 13 30.09 1019 10 16.0934 0 0
11:15 pm 23:15 Clear 47 8.3 30 -1.3 51 51 ESE 6 9 30.09 1019 10 16.0934 0 0
11:35 pm 23:35 Clear 47 8.3 29 -1.6 50 50 ESE 6 9 30.08 1019 10 16.0934 0 0
11:55 pm 23:55 Clear 49 9.2 29 -1.6 47 47 S 13 20 30.05 1018 10 16.0934 0 0

Powered by AerisWeather